Weather History for Pine Ridge, SD

Change the Weather History Date:

Monday, February 3, 2014

  Actual Average Record
Temperature  
Mean Temperature 15 °F 24 °F  
Max Temperature 28 °F 38 °F 59 °F (2005)
Min Temperature 2 °F 11 °F -14 °F (2007)
Degree Days  
Heating Degree Days 50 41  
Month to date heating degree days 164 123  
Since 1 July heating degree days 4349 4400  
Cooling Degree Days 0 0  
Month to date cooling degree days 0 0  
Year to date cooling degree days 0 0  
Moisture  
Dew Point 9 °F    
Average Humidity 73    
Maximum Humidity 88    
Minimum Humidity 58    
Precipitation  
Precipitation T in 0.02 in 0.06 in (2001)
Month to date precipitation 0.01 0.06  
Year to date precipitation 0.10 0.38  
Sea Level Pressure  
Sea Level Pressure 30.11 in    
Wind  
Wind Speed 8 mph (NNE)    
Max Wind Speed 16 mph    
Max Gust Speed 20 mph    
Visibility 8 miles    
Events Snow    
T = Trace of Precipitation, MM = Missing Value Source: NWS Daily Summary

Daily Weather History Graph

Daily Weather History Graph

Search for Another Location

Airport:

Trip Planner

Search our weather history database for the weather conditions in past years. The results will help you decide how hot, cold, wet, or windy it might be!

Date:

Astronomy

Feb. 03, 2014 Rise Set
Actual Time 7:02 AM MST 5:05 PM MST
Civil Twilight 6:32 AM MST 5:35 PM MST
Nautical Twilight 5:59 AM MST 6:09 PM MST
Astronomical Twilight 5:25 AM MST 6:42 PM MST
Moon 8:58 AM MST (2/3) 10:07 PM MST (2/3)
Length of Visible Light 11h 02m
Length of Day
10h 02m
Waxing Crescent, 20% of the Moon is Illuminated
Feb 3
Waxing Crescent
Feb 6
First Quarter
Feb 14
Full
Feb 22
Last Quarter
Mar 1
New

Hourly Weather History & Observations

Time (MST) Temp. Windchill Dew Point Humidity Pressure Visibility Wind Dir Wind Speed Gust Speed Precip Events Conditions
12:52 AM 3.0 °F - -0.0 °F 87% 30.16 in 10.0 mi Calm Calm - N/A   Clear
1:52 AM 3.0 °F -8.0 °F -0.9 °F 84% 30.15 in 10.0 mi East 5.8 mph - N/A   Clear
2:52 AM 6.1 °F -5.6 °F 1.0 °F 80% 30.12 in 10.0 mi East 6.9 mph - N/A   Clear
3:52 AM 10.9 °F 1.4 °F 5.0 °F 77% 30.08 in 10.0 mi ENE 5.8 mph - N/A   Clear
4:52 AM 10.0 °F 1.8 °F 3.9 °F 76% 30.08 in 10.0 mi East 4.6 mph - N/A   Clear
5:52 AM 10.9 °F 2.9 °F 6.1 °F 81% 30.09 in 10.0 mi NW 4.6 mph - N/A   Scattered Clouds
6:52 AM 10.9 °F - 6.1 °F 81% 30.11 in 10.0 mi Calm Calm - N/A   Overcast
7:52 AM 12.9 °F 2.6 °F 9.0 °F 84% 30.12 in 10.0 mi ENE 6.9 mph - N/A   Overcast
8:52 AM 15.1 °F 5.2 °F 10.0 °F 80% 30.14 in 10.0 mi ENE 6.9 mph - N/A   Overcast
9:52 AM 18.0 °F 8.7 °F 12.0 °F 78% 30.14 in 10.0 mi ENE 6.9 mph - N/A   Overcast
10:52 AM 25.0 °F 19.3 °F 14.0 °F 63% 30.12 in 10.0 mi North 4.6 mph - N/A   Clear
11:50 AM 26.6 °F 22.6 °F 15.8 °F 64% 29.94 in 10.0 mi Variable 3.5 mph - N/A   Overcast
11:52 AM 26.1 °F 20.5 °F 15.1 °F 63% 30.09 in 10.0 mi Variable 4.6 mph - N/A   Overcast
12:24 PM 26.6 °F 19.1 °F 15.8 °F 64% 29.93 in 10.0 mi WNW 6.9 mph - N/A   Scattered Clouds
12:52 PM 28.0 °F 19.3 °F 16.0 °F 61% 30.08 in 10.0 mi WNW 9.2 mph - N/A   Scattered Clouds
12:59 PM 24.8 °F 15.3 °F 14.0 °F 64% 29.92 in 10.0 mi NW 9.2 mph - N/A   Mostly Cloudy
1:25 PM 26.6 °F 20.0 °F 15.8 °F 64% 29.92 in 10.0 mi NNW 5.8 mph - N/A   Scattered Clouds
1:52 PM 27.0 °F 17.3 °F 15.1 °F 61% 30.09 in 10.0 mi WNW 10.4 mph - N/A   Scattered Clouds
2:12 PM 26.6 °F 18.2 °F 14.0 °F 59% 29.93 in 10.0 mi NW 8.1 mph - N/A   Mostly Cloudy
2:35 PM 26.6 °F 16.8 °F 12.2 °F 55% 29.94 in 10.0 mi North 10.4 mph - N/A   Scattered Clouds
2:52 PM 25.0 °F 14.8 °F 12.0 °F 58% 30.11 in 10.0 mi NNW 10.4 mph - N/A   Clear
3:30 PM 23.0 °F 10.6 °F 10.4 °F 59% 29.97 in 10.0 mi NNW 13.8 mph - N/A   Mostly Cloudy
3:52 PM 21.0 °F 8.6 °F 10.0 °F 63% 30.14 in 10.0 mi North 12.7 mph - N/A   Overcast
4:52 PM 17.1 °F 5.8 °F 10.0 °F 74% 30.18 in 10.0 mi North 9.2 mph - N/A   Overcast
5:52 PM 16.0 °F 2.9 °F 10.0 °F 77% 30.22 in 5.0 mi NNE 11.5 mph - 0.00 in Snow Light Snow
6:52 PM 14.0 °F 1.2 °F 8.1 °F 77% 30.25 in 7.0 mi NNE 10.4 mph - 0.00 in Snow Light Snow
7:52 PM 14.0 °F 2.0 °F 9.0 °F 80% 30.26 in 4.0 mi NNE 9.2 mph - 0.00 in Snow Light Snow
8:23 PM 12.2 °F -0.2 °F 8.6 °F 85% 30.10 in 5.0 mi NE 9.2 mph - 0.00 in Snow Light Snow
8:52 PM 12.9 °F 0.7 °F 8.1 °F 81% 30.28 in 5.0 mi NE 9.2 mph - 0.00 in Snow Light Snow
9:00 PM 12.2 °F 1.7 °F 8.6 °F 85% 30.11 in 5.0 mi NE 6.9 mph - 0.00 in Snow Light Snow
9:23 PM 12.2 °F -1.8 °F 6.8 °F 79% 30.11 in 5.0 mi NE 11.5 mph - 0.00 in Snow Light Snow
9:52 PM 12.0 °F -1.3 °F 7.0 °F 80% 30.28 in 7.0 mi NE 10.4 mph - 0.00 in Snow Light Snow
10:40 PM 12.2 °F 0.7 °F 6.8 °F 79% 30.13 in 6.0 mi NE 8.1 mph - 0.00 in   Haze
10:52 PM 12.0 °F 0.5 °F 7.0 °F 80% 30.27 in 5.0 mi NNE 8.1 mph - 0.00 in Snow Light Snow
11:52 PM 10.9 °F -4.7 °F 6.1 °F 81% 30.29 in 5.0 mi ENE 13.8 mph - 0.00 in Snow Light Snow